Ottawa Gatineau, Quebec

2:20 AM EDT on June 27, 2017 (GMT -0400)
Ottawa Gatineau

Weather History for CYND - October, 2012

Change the Weather History Date:

Wednesday, October 31, 2012

  Actual Average Record
Temperature  
Mean Temperature 50 °F -  
Max Temperature 55 °F 45 °F 66 °F (1999)
Min Temperature 44 °F 29 °F 19 °F (2001)
Degree Days  
Heating Degree Days 16    
Moisture  
Dew Point 48 °F    
Average Humidity 94    
Maximum Humidity 100    
Minimum Humidity 87    
Precipitation  
Precipitation 0.00 in - - ()
Sea Level Pressure  
Sea Level Pressure 29.43 in    
Wind  
Wind Speed 7 mph ()    
Max Wind Speed 14 mph    
Max Gust Speed 21 mph    
Visibility 8.8 miles    
Events Rain    
Averages and records for this station are not official NWS values.
T = Trace of Precipitation, MM = Missing Value Source: Averaged Metar Reports

Daily Weather History Graph

Daily Weather History Graph

Search for Another Location

Airport or City:

Trip Planner

Search our weather history database for the weather conditions in past years. The results will help you decide how hot, cold, wet, or windy it might be!

Date:

Astronomy

Oct. 31, 2012 Rise Set
Actual Time 7:41 AM EDT 5:50 PM EDT
Civil Twilight 7:10 AM EDT 6:20 PM EDT
Nautical Twilight 6:35 AM EDT 6:55 PM EDT
Astronomical Twilight 6:00 AM EDT 7:30 PM EDT
Moon 6:53 PM EDT (10/31) 9:25 AM EDT (10/31)
Length of Visible Light 11h 10m
Length of Day
10h 08m
Full, 97% of the Moon is Illuminated
Oct 31
Full
Nov 6
Last Quarter
Nov 13
New
Nov 20
First Quarter
Nov 28
Full

Hourly Weather History & Observations

Time (EDT) Temp. Windchill Dew Point Humidity Pressure Visibility Wind Dir Wind Speed Gust Speed Precip Events Conditions
7:00 AM 53.6 °F - 53.6 °F 100% 29.41 in 15.0 mi ENE 9.2 mph - N/A   Mostly Cloudy
7:42 AM 55.4 °F - 53.6 °F 94% 29.41 in 15.0 mi ENE 10.4 mph - N/A   Overcast
8:00 AM 55.4 °F - 53.6 °F 94% 29.41 in 10.0 mi East 11.5 mph - N/A   Overcast
8:33 AM 55.4 °F - 53.6 °F 94% 29.41 in 8.0 mi ENE 9.2 mph - N/A Rain Light Rain
9:00 AM 55.4 °F - 53.6 °F 94% 29.42 in 6.0 mi East 10.4 mph 17.3 mph N/A Rain Light Rain
10:00 AM 55.4 °F - 53.6 °F 94% 29.42 in 5.0 mi East 8.1 mph - N/A Rain Light Rain
10:35 AM 55.4 °F - 53.6 °F 94% 29.41 in 2.0 mi East 9.2 mph - N/A Rain Rain
10:55 AM 50.0 °F - 48.2 °F 94% 29.42 in 4.0 mi SSW 13.8 mph 20.7 mph N/A Rain Light Rain
11:00 AM 50.0 °F - 48.2 °F 94% 29.42 in 4.0 mi SW 12.7 mph 20.7 mph N/A Rain Light Rain
11:47 AM 46.4 °F 41.5 °F 46.4 °F 100% 29.44 in 2.0 mi SW 10.4 mph - N/A Rain Light Rain
12:00 PM 48.2 °F - 46.4 °F 93% 29.44 in 2.0 mi WSW 6.9 mph - N/A Rain Light Rain
12:24 PM 48.2 °F - 46.4 °F 93% 29.44 in 10.0 mi WSW 5.8 mph - N/A Rain Light Rain
1:00 PM 48.2 °F - 46.4 °F 93% 29.43 in 10.0 mi West 5.8 mph - N/A Rain Light Rain
2:00 PM 48.2 °F - 46.4 °F 93% 29.42 in 10.0 mi SW 5.8 mph - N/A Rain Light Rain
2:26 PM 48.2 °F - 46.4 °F 93% 29.42 in 8.0 mi WSW 4.6 mph - N/A Rain Light Rain
3:00 PM 48.2 °F - 46.4 °F 93% 29.42 in 8.0 mi West 2.3 mph - N/A Rain Light Rain
3:21 PM 48.2 °F - 46.4 °F 93% 29.43 in 6.0 mi South 6.9 mph - N/A Rain Light Rain
4:00 PM 48.2 °F - 46.4 °F 93% 29.43 in 6.0 mi South 8.1 mph - N/A Rain Light Rain
4:20 PM 46.4 °F 42.9 °F 44.6 °F 93% 29.44 in 12.0 mi South 6.9 mph - N/A   Overcast
5:00 PM 46.4 °F 42.4 °F 42.8 °F 87% 29.44 in 12.0 mi South 8.1 mph - N/A   Overcast
6:00 PM 44.6 °F 43.1 °F 42.8 °F 93% 29.46 in 12.0 mi SSE 3.5 mph - N/A   Mostly Cloudy
7:00 PM 44.6 °F 43.1 °F 44.6 °F 100% 29.46 in 15.0 mi SSE 3.5 mph - N/A   Overcast
8:00 PM 44.6 °F - 42.8 °F 93% 29.47 in 15.0 mi Calm Calm - N/A   Overcast
9:00 PM 44.6 °F 43.1 °F 42.8 °F 93% 29.46 in 15.0 mi SSE 3.5 mph - N/A   Overcast